Location: ???????
(55.8860°N, 38.0932°E)
Time: 16:52:09
(UTC+00:00)

Intercosmos 25 Rocket - Pass Details

Date: 14 April 2024
Orbit: 434 x 2971 km, 82.6° (Epoch: 23 May)

Event Time Altitude Azimuth Distance (km) Brightness Sun altitude
Rises 01:12:34 0° 345° (NNW) 2,434 6.9 -9.8°
Reaches altitude 10° 01:14:28 10° 341° (NNW) 1,576 5.9 -9.6°
Maximum altitude 01:17:38 61° 261° (W) 568 3.1 -9.2°
Drops below altitude 10° 01:21:37 10° 181° (S) 1,976 5.8 -8.8°
Sets 01:24:16 0° 178° (S) 3,147 6.9 -8.5°
